x

9439040 - Astoria, Or (asto3) Weather Station

8:30 - Tue 25th Nov 2014 All times are PST. -8 hours from GMT.

  • Wind
    15mph, 22mph gusts
  • Sea Temp 48°f
  • Air Temp 56°f
  • Sea Pressure 1025.2mb
  • 9439040 - Astoria, Or
  • 9439040 - Astoria, Or

More Historic Weather Station data

Upgrade to MSW Pro to gain access to the past 30 days of data for over 8000 Wavebouys and Weather Stations around the globe.

Join Pro

Comparision Forecast

View Surf forecast
   
mar. 11/25 8:30 15 22 mph 1025.2mb 48f 56f
8:24 15 25 mph 1025.1mb 48f 56f
8:18 15 24 mph 1025.1mb 48f 56f
8:12 14 22 mph 1025.2mb 48f 56f
8:06 14 22 mph 1025.2mb 48f 56f
8:00 16 23 mph 1025.2mb 48f 56f
7:54 18 25 mph 1025.2mb 48f 56f
7:48 15 22 mph 1025.2mb 48f 56f
7:42 14 28 mph 1025.1mb 48f 57f
7:36 14 23 mph 1025.1mb 48f 57f
7:30 15 22 mph 1025.1mb 48f 57f
7:24 18 25 mph 1025.1mb 48f 57f
7:18 15 23 mph 1025.2mb 48f 57f
7:12 14 18 mph 1025.1mb 48f 57f
7:06 15 22 mph 1025.1mb 48f 57f
7:00 15 25 mph 1025mb 48f 57f
6:54 17 24 mph 1025mb 48f 57f
6:48 14 22 mph 1025.2mb 48f 57f
6:42 14 29 mph 1025.2mb 48f 57f
6:36 18 30 mph 1025.2mb 48f 57f
6:30 18 28 mph 1025.2mb 48f 57f
6:24 16 23 mph 1025.3mb 48f 58f
6:18 13 22 mph 1025.4mb 48f 58f
6:12 16 20 mph 1025.4mb 48f 58f
6:06 16 23 mph 1025.6mb 48f 58f
6:00 15 21 mph 1025.5mb 48f 58f
5:54 15 20 mph 1025.4mb 48f 58f
5:48 16 25 mph 1025.5mb 48f 58f
5:42 15 21 mph 1025.4mb 48f 58f
5:36 16 24 mph 1025.5mb 48f 58f
5:30 14 21 mph 1025.5mb - 58f
5:24 14 21 mph 1025.4mb - 58f
5:18 14 22 mph 1025.5mb 47f 58f
5:12 16 22 mph 1025.4mb 47f 58f
5:06 15 21 mph 1025.4mb 47f 58f
5:00 13 21 mph 1025.4mb 47f 58f
4:54 14 18 mph 1025.5mb 47f 58f
4:48 17 22 mph 1025.4mb 47f 58f
4:42 16 23 mph 1025.4mb 47f 58f
4:36 15 23 mph 1025.3mb 47f 58f
4:30 14 20 mph 1025.3mb 47f 58f
4:24 13 21 mph 1025.3mb 47f 58f
4:18 14 20 mph 1025.3mb 47f 59f
4:12 14 20 mph 1025.3mb 47f 59f
4:06 13 20 mph 1025.4mb 47f 58f
4:00 13 17 mph 1025.4mb 47f 58f
3:54 13 18 mph 1025.4mb 47f 58f
3:48 13 25 mph 1025.4mb 47f 58f
3:42 17 23 mph 1025.5mb 47f 59f
3:36 15 23 mph 1025.5mb 47f 59f
3:30 16 25 mph 1025.5mb 47f 58f
3:24 20 25 mph 1025.6mb 47f 58f
3:18 18 25 mph 1025.6mb 47f 58f
3:12 10 24 mph 1025.7mb 47f 57f
3:06 14 24 mph 1025.8mb 47f 58f
3:00 15 23 mph 1025.8mb 47f 58f
2:54 16 24 mph 1025.9mb 47f 58f
2:48 18 24 mph 1025.8mb 47f 58f
2:42 17 26 mph 1025.6mb 47f 58f
2:36 17 24 mph 1025.6mb 47f 58f
2:30 14 23 mph 1025.5mb 47f 58f
2:24 18 23 mph 1025.5mb 47f 58f
2:18 17 23 mph 1025.6mb 47f 58f
2:12 18 25 mph 1025.6mb 47f 58f
2:06 18 24 mph 1025.8mb 47f 58f
2:00 16 23 mph 1025.8mb 47f 58f
1:54 17 26 mph 1025.8mb 47f 58f
1:48 16 22 mph 1025.9mb 47f 58f
1:42 18 25 mph 1025.8mb 47f 58f
1:36 18 26 mph 1025.8mb 47f 58f
1:30 18 26 mph 1025.8mb 47f 57f
1:24 17 28 mph 1025.9mb 47f 57f
1:18 18 26 mph 1025.8mb 47f 58f
1:12 20 25 mph 1025.7mb 47f 58f
1:06 18 26 mph 1025.6mb 47f 58f
1:00 18 25 mph 1025.8mb 47f 58f
12:54 18 30 mph 1025.9mb 47f 58f
12:48 16 23 mph 1025.9mb 47f 58f
12:42 17 24 mph 1026mb 47f 58f
12:36 16 22 mph 1026.1mb 47f 58f
12:30 16 22 mph 1026.1mb 47f 58f
12:24 18 25 mph 1026.1mb 47f 58f
12:18 18 22 mph 1026mb 47f 58f
12:12 20 29 mph 1026mb 47f 59f
12:06 20 24 mph 1026.1mb 47f 59f
12:00 16 22 mph 1026.1mb 47f 59f
11:54 16 24 mph 1026.2mb 47f 58f
11:48 16 23 mph 1026.3mb 47f 58f
11:42 21 30 mph 1026.4mb 47f 58f
11:36 20 26 mph 1026.4mb 47f 58f
11:30 18 28 mph 1026.5mb 47f 58f
11:24 17 23 mph 1026.4mb 47f 58f
11:18 16 24 mph 1026.4mb 47f 58f
11:12 17 24 mph 1026.4mb 47f 58f
11:06 16 25 mph 1026.4mb 47f 58f
11:00 18 29 mph 1026.2mb 47f 58f
10:54 18 26 mph 1026.3mb 47f 58f
10:48 17 25 mph 1026.5mb 47f 58f
10:42 24 30 mph 1026.4mb 47f 58f
10:36 21 29 mph 1026.4mb 47f 58f
10:30 18 24 mph 1026.4mb 47f 57f
10:24 21 31 mph 1026.3mb 47f 57f
10:18 18 24 mph 1026.3mb 47f 57f
10:06 17 25 mph 1026.2mb 47f 57f
10:00 18 25 mph 1026.2mb 47f 57f
9:54 21 25 mph 1026.1mb 47f 57f
9:48 17 26 mph 1025.9mb 47f 57f
9:42 20 29 mph 1025.8mb 47f 57f
9:36 22 29 mph 1025.7mb 47f 57f
9:30 22 33 mph 1025.7mb 47f 57f
9:24 20 26 mph 1025.7mb 47f 57f
9:18 22 30 mph 1025.8mb 47f 58f
9:12 21 33 mph 1025.5mb 47f 58f
9:06 17 28 mph 1025.4mb 47f 57f
9:00 21 30 mph 1025.5mb 47f 57f
8:54 20 24 mph 1025.4mb 47f 57f
8:48 16 24 mph 1025.3mb 47f 57f
8:42 20 26 mph 1025.3mb 47f 57f
8:30 17 29 mph 1025.2mb 47f 57f
8:24 17 30 mph 1025.2mb 47f 57f
8:18 16 24 mph 1025.1mb 47f 58f
8:12 17 25 mph 1025.1mb 47f 57f
8:06 21 31 mph 1025.1mb 47f 57f
8:00 18 28 mph 1025mb 47f 57f
7:54 18 25 mph 1025.1mb 47f 57f
7:48 17 22 mph 1025.2mb 47f 56f
7:42 21 29 mph 1025mb 47f 57f
7:36 17 29 mph 1025.1mb 47f 57f
7:30 20 28 mph 1025.1mb 47f 56f
7:24 20 24 mph 1025mb 47f 56f
7:18 18 22 mph 1025.1mb 47f 56f
7:12 20 26 mph 1025.1mb 47f 56f
7:06 20 25 mph 1025mb 47f 56f
7:00 22 31 mph 1024.9mb 47f 56f
6:54 22 30 mph 1024.6mb 47f 56f
6:48 18 25 mph 1024.5mb 47f 56f
6:42 21 29 mph 1024.4mb 47f 56f
6:36 18 29 mph 1024.5mb 47f 56f
6:30 18 29 mph 1024.4mb 47f 56f
6:24 22 30 mph 1024.4mb 47f 56f
6:18 23 30 mph - - -
6:12 22 30 mph - - -
6:06 18 26 mph - - -
6:00 18 25 mph 1024.3mb 47f 56f
5:54 24 31 mph 1024.3mb 47f 56f
5:48 22 29 mph 1024.3mb 47f 56f
5:42 17 28 mph 1024.3mb 47f 56f
5:36 20 28 mph 1024.3mb 47f 56f
5:30 23 29 mph 1024.1mb 47f 56f
5:24 21 29 mph 1024mb 47f 56f
5:18 18 26 mph 1024.1mb 47f 56f
5:06 20 25 mph 1024.1mb 47f 56f
5:00 17 28 mph 1024.1mb 47f 56f
4:54 21 29 mph 1024mb 47f 56f
4:48 18 25 mph 1024mb 47f 56f
4:42 21 26 mph 1023.9mb 47f 56f
4:36 18 29 mph 1024mb 47f 56f
4:30 14 25 mph 1024mb 47f 55f
4:24 21 29 mph 1024mb 47f 56f
4:18 20 29 mph 1023.9mb 47f 56f
4:12 20 28 mph 1024mb 47f 56f
4:06 18 25 mph 1023.9mb 47f 56f
4:00 21 28 mph 1024mb 47f 56f
3:54 20 24 mph 1024.1mb 47f 56f
3:48 22 29 mph 1024mb 47f 56f
3:42 18 26 mph 1024mb 47f 56f
3:36 16 31 mph 1023.9mb 47f 56f
3:30 17 30 mph 1023.8mb 47f 56f
3:24 22 26 mph 1023.7mb 47f 56f
3:18 18 26 mph 1023.7mb 47f 56f
3:12 18 24 mph 1023.6mb 47f 56f
3:06 20 28 mph 1023.7mb 47f 56f
3:00 20 26 mph 1023.7mb 47f 56f
2:54 20 25 mph 1023.7mb 47f 56f
2:48 20 24 mph 1024mb 47f 55f
2:42 18 26 mph 1024mb 47f 55f
2:36 13 24 mph 1024mb 47f 55f
2:30 18 24 mph 1023.9mb 47f 56f
2:24 15 23 mph 1023.8mb 47f 55f
2:18 16 25 mph 1023.8mb 47f 55f
2:12 17 22 mph 1023.8mb 47f 55f
2:06 16 21 mph 1023.8mb 47f 55f
2:00 15 21 mph 1023.9mb 47f 55f
1:54 13 17 mph 1024mb 47f 55f
1:48 13 16 mph 1024mb 47f 55f
1:42 13 17 mph 1024.1mb 47f 55f
1:36 11 20 mph 1024.1mb 47f 54f
1:30 13 20 mph 1024.2mb 47f 55f
1:24 13 16 mph 1024.2mb 47f 55f
1:18 15 20 mph 1024.1mb 47f 55f
1:12 15 20 mph 1024.1mb 47f 55f
1:06 14 18 mph 1024.1mb 47f 55f
1:00 11 17 mph 1024.1mb 47f 55f
12:54 11 21 mph 1024.2mb 47f 55f
12:48 14 20 mph 1024.1mb 47f 55f
12:42 11 18 mph 1024.1mb 47f 54f
12:36 11 16 mph 1024.1mb 47f 54f
12:30 8 14 mph 1024.2mb 47f 54f
12:24 9 13 mph 1024.3mb 47f 54f
12:18 11 15 mph 1024.3mb 47f 54f
12:12 10 14 mph 1024.3mb 47f 54f
12:06 10 14 mph 1024.3mb 47f 54f
12:00 8 16 mph 1024.4mb 47f 54f
lun. 11/24 11:54 8 10 mph 1024.5mb 47f 53f
11:48 8 13 mph 1024.5mb 47f 54f
11:42 9 14 mph 1024.3mb 47f 54f
11:36 10 16 mph 1024.2mb 47f 54f
11:30 10 16 mph 1024.2mb 47f 54f
11:24 13 18 mph 1024.1mb 47f 55f
11:18 10 13 mph 1024.1mb 47f 54f
11:12 9 17 mph 1024.1mb 47f 54f
11:06 10 15 mph 1024mb 47f 54f
11:00 10 18 mph 1024mb 47f 54f
10:54 13 20 mph 1023.8mb 47f 55f
10:48 14 21 mph 1023.6mb 47f 55f
10:42 15 20 mph 1023.8mb 47f 55f
10:36 16 22 mph 1023.6mb 47f 55f
10:30 16 22 mph 1023.6mb 47f 55f
10:24 13 22 mph 1023.6mb 47f 55f
10:18 14 20 mph 1023.4mb 47f 55f
10:12 13 20 mph 1023.4mb 47f 55f
10:06 15 22 mph 1023.3mb 47f 55f
10:00 13 23 mph 1023.2mb 47f 55f
9:54 16 22 mph 1023.1mb 47f 55f
9:48 15 22 mph 1023.1mb 47f 56f
9:42 16 22 mph 1023.1mb 47f 56f
9:36 15 23 mph 1023.1mb 47f 56f
9:30 15 18 mph 1023mb 47f 56f
9:24 14 16 mph 1023mb 47f 56f
9:18 15 24 mph 1023.1mb 47f 56f
9:12 14 23 mph 1023.1mb 47f 56f
9:06 18 25 mph 1023.1mb 47f 56f
9:00 16 23 mph 1023mb 47f 56f
8:54 15 25 mph 1022.8mb 47f 56f
8:48 18 24 mph 1022.8mb 47f 56f
8:42 18 25 mph 1022.8mb 47f 56f
8:36 16 26 mph 1022.8mb 47f 56f
8:30 17 24 mph 1022.8mb 47f 56f
8:24 17 23 mph 1022.7mb 47f 56f
8:18 15 21 mph 1022.5mb 47f 56f
8:12 17 24 mph 1022.3mb 47f 56f
8:06 17 28 mph 1022.4mb 47f 56f
8:00 18 29 mph 1022.4mb 47f 56f
7:54 21 29 mph 1022.4mb 47f 56f
7:48 21 30 mph 1022.1mb 47f 56f
7:42 25 36 mph 1021.8mb 47f 56f
7:36 20 32 mph 1021.7mb 47f 56f
7:30 17 28 mph 1021.9mb 47f 56f
7:24 20 26 mph 1022.1mb 47f 56f
7:18 20 25 mph 1022.2mb 47f 56f
7:12 22 28 mph 1022.1mb 47f 55f
7:06 21 30 mph 1022.1mb 47f 55f
7:00 20 29 mph 1022.3mb 47f 55f
6:54 17 24 mph 1022.4mb 47f 55f
6:48 15 25 mph 1022.4mb 47f 55f
6:42 20 25 mph 1022.4mb 47f 55f
6:36 15 24 mph 1022.5mb 47f 55f
6:30 20 29 mph 1022.5mb 47f 55f
6:24 18 28 mph 1022.5mb 47f 55f
6:18 16 24 mph 1022.5mb 47f 54f
6:12 17 28 mph 1022.6mb 47f 54f
6:06 16 26 mph 1022.6mb 47f 54f
6:00 17 23 mph 1022.7mb 47f 54f
5:54 16 22 mph 1022.8mb 47f 54f
5:48 11 23 mph 1022.8mb 47f 54f
5:42 13 17 mph 1022.7mb 47f 53f
5:36 11 17 mph 1022.8mb 47f 52f
5:30 8 14 mph 1022.9mb 47f 51f
5:24 3 6 mph 1023mb 47f 49f
5:18 1 3 mph 1023mb 47f 49f
5:12  -  5 mph 1023.1mb 47f 49f
5:06 1 3 mph 1023mb 47f 49f
5:00 3 7 mph 1023.1mb 47f 49f
4:54 2 7 mph 1023.1mb 47f 49f
4:48 3 8 mph 1023.1mb 47f 49f
4:42 5 6 mph 1023.2mb 47f 49f
4:36 3 5 mph 1023.2mb 47f 49f
4:30 5 6 mph 1023.3mb 47f 50f
4:24 2 6 mph 1023.4mb 47f 49f
4:18 3 7 mph 1023.4mb 47f 49f
4:12 3 6 mph 1023.5mb 47f 49f
4:06  -  2 mph 1023.5mb 47f 49f
4:00 1 3 mph 1023.6mb 47f 49f
3:54 2 3 mph 1023.5mb 47f 49f
3:48 3 5 mph 1023.6mb 47f 49f
3:42 3 5 mph 1023.6mb 47f 49f
3:36 2 5 mph 1023.6mb 47f 49f
3:30 2 5 mph 1023.7mb 47f 49f
3:24 5 7 mph 1023.8mb 47f 49f
3:18 3 6 mph 1023.9mb 47f 48f
3:12 2 5 mph 1023.9mb 47f 48f
3:06 3 6 mph 1024mb 47f 48f
3:00 5 8 mph 1024.1mb 47f 48f
2:54 5 8 mph 1024.2mb 47f 49f
2:48 2 5 mph 1024.4mb 47f 49f
2:42 2 6 mph 1024.4mb 47f 49f
2:36 3 6 mph 1024.4mb 47f 49f
2:30 2 6 mph 1024.5mb 47f 49f
2:24 6 7 mph 1024.8mb 47f 49f
2:18 5 6 mph 1024.8mb 47f 49f
2:12 2 3 mph 1025.1mb 47f 50f
2:06 1 3 mph 1025.4mb 47f 50f
2:00 2 8 mph 1025.2mb 47f 50f
1:54 6 7 mph 1025mb 47f 50f
1:48 2 3 mph 1025.3mb 47f 50f
1:42  -  3 mph 1025.5mb 47f 50f
1:36 2
mph
1025.5mb 47f 50f
1:30 2 6 mph 1025.4mb 47f 51f
1:24 5 6 mph 1025.3mb 47f 51f
1:18 5 6 mph 1025.3mb 47f 51f
1:12 3 5 mph 1025.4mb 47f 50f
1:06 1 6 mph 1025.2mb 47f 50f
1:00 6 10 mph 1025.1mb 46f 50f
12:54 7 9 mph 1025.2mb 46f 50f
12:48 7 10 mph 1025.4mb 46f 50f
12:42 6 10 mph 1025.5mb 46f 50f
12:36 5 7 mph 1025.5mb 46f 49f
12:30 3 8 mph 1025.5mb 46f 49f
12:24 3 6 mph 1025.6mb 46f 49f
12:18 3 7 mph 1025.7mb 46f 49f
12:12 3 6 mph 1025.8mb 46f 50f
12:06 5 7 mph 1025.9mb 46f 50f
12:00 5 9 mph 1026mb 46f 49f
11:54 7 10 mph 1025.9mb 46f 49f
11:48 6 8 mph 1026mb 46f 49f
11:42 5 8 mph 1026.2mb 46f 49f
11:36 5 8 mph 1026.2mb 46f 49f
11:30 6 8 mph 1026.4mb 46f 49f
11:24 2 6 mph 1026.7mb 46f 49f
11:18 3 6 mph 1026.8mb 46f 49f
11:12 3 7 mph 1026.9mb 46f 49f
11:06 2 5 mph 1027.1mb 46f 49f
11:00 3 9 mph 1027.3mb 46f 49f
10:54 2 7 mph 1027.4mb 46f 49f
10:48 3 7 mph 1027.3mb 46f 49f
10:42  -  6 mph 1027.5mb 46f 49f
10:36 2 3 mph 1027.6mb 46f 48f
10:30 3 5 mph 1027.8mb 46f 48f
10:24  -  5 mph 1027.8mb 46f 48f
10:18 3 6 mph 1027.9mb 46f 48f
10:12 3 8 mph 1027.7mb 46f 48f
10:06 5 8 mph 1027.5mb 46f 48f
10:00 5 8 mph 1027.6mb 46f 48f
9:54 3 8 mph 1027.8mb 46f 48f
9:48 5 8 mph 1027.9mb 46f 48f
9:42 6 8 mph 1027.8mb 46f 47f
9:36 6 10 mph 1027.7mb 46f 47f
9:30 5 9 mph 1027.8mb 46f 47f
9:24 3 8 mph 1027.9mb 46f 47f
9:18 3 10 mph 1027.9mb 46f 47f
9:12 6 9 mph 1027.9mb 46f 47f
9:06 2 8 mph 1027.9mb 46f 47f
9:00 2 6 mph 1027.9mb 46f 47f
8:54 1 6 mph 1027.8mb 46f 47f
8:48 1 6 mph 1027.7mb 46f 47f
8:42 2 8 mph 1027.7mb 46f 46f
8:36 5 9 mph 1027.7mb 46f 46f
8:30  -  8 mph 1027.6mb 46f 46f
8:24 6 7 mph 1027.5mb 46f 46f
8:18 2 6 mph 1027.4mb 46f 46f
8:12 5 7 mph 1027.4mb 46f 46f
8:06 2 10 mph 1027.3mb 46f 46f
8:00 6 10 mph 1027.4mb 46f 46f
7:54 7 10 mph 1027.3mb 46f 46f
7:48 3 8 mph 1027.7mb 46f 46f
7:42 7 9 mph 1027.8mb 46f 46f
7:36 6 10 mph 1027.8mb 46f 46f
7:30 7 14 mph 1027.8mb 46f 46f
7:24 6 9 mph 1027.8mb 46f 46f
7:18 5 10 mph 1027.7mb 46f 46f
7:12 5 8 mph 1027.8mb 46f 46f
7:06 3 9 mph 1027.8mb 46f 46f
7:00 7 10 mph 1027.7mb 46f 45f
6:54 8 11 mph 1027.7mb 46f 45f
6:48 6 9 mph 1027.6mb 46f 45f
6:42 8 10 mph 1027.4mb 46f 45f
6:36 7 11 mph 1027.4mb 46f 45f
6:30 6 10 mph 1027.4mb 46f 45f
6:24 7 9 mph 1027.5mb 46f 45f
6:18 7 14 mph 1027.5mb 46f 45f
6:12 9 11 mph 1027.5mb 46f 45f
6:06 7 10 mph 1027.6mb 46f 45f
6:00 8 11 mph 1027.7mb 46f 45f
5:54 5 11 mph 1027.7mb 46f 45f
5:48 5 9 mph 1027.7mb 46f 45f
5:42 7 10 mph 1027.8mb 46f 45f
5:36 7 10 mph 1027.8mb 46f 44f
5:30 3 9 mph 1027.7mb 46f 44f
5:24 6 9 mph 1027.7mb 46f 44f
5:18 7 9 mph 1027.6mb 46f 44f
5:12 6 9 mph 1027.7mb 46f 44f
5:06 6 9 mph 1027.8mb 46f 44f
5:00 6 8 mph 1028mb 46f 44f
4:54 6 9 mph 1028mb 46f 44f
4:48 6 8 mph 1027.9mb 46f 44f
4:42 7 9 mph 1027.9mb 46f 44f
4:36 7 11 mph 1027.8mb 46f 44f
4:30 7 10 mph 1027.6mb 46f 44f
4:24 6 10 mph 1027.5mb 46f 44f
4:18 8 10 mph 1027.6mb 46f 44f
4:12 8 9 mph 1027.8mb 46f 44f
4:06 8 10 mph 1027.8mb 46f 44f
4:00 8 9 mph 1027.9mb 46f 44f
3:54 8 10 mph 1027.9mb 46f 44f
3:48 7 11 mph 1028mb 46f 44f
3:42 7 10 mph 1027.9mb 46f 44f
3:36 6 9 mph 1028mb 46f 44f
3:30 3 8 mph 1028.1mb 46f 44f
3:24 6 10 mph 1028.4mb 47f 44f
3:18 8 10 mph 1028.3mb 47f 44f
3:06 8 10 mph 1028.3mb 47f 43f
3:00 6 9 mph 1028.3mb 47f 43f
2:54 6 9 mph 1028.4mb 47f 43f
2:48 6 8 mph 1028.5mb 47f 44f
2:42 7 10 mph 1028.3mb 47f 44f
2:36 9 13 mph 1028.4mb 47f 44f
2:30 8 11 mph 1028.3mb 47f 44f
2:24 9 11 mph 1028.3mb 47f 44f
2:18 9 11 mph 1028.3mb 47f 44f
2:12 8 11 mph 1028.3mb 46f 44f
2:06 8 13 mph 1028.4mb 46f 44f
2:00 6 8 mph 1028.5mb 46f 44f
1:54 7 9 mph 1028.5mb 46f 44f
1:48 6 9 mph 1028.5mb 46f 44f
1:42 7 10 mph 1028.5mb 46f 44f
1:36 7 10 mph 1028.5mb 46f 44f
1:30 5 8 mph 1028.6mb 46f 44f
1:24 5 9 mph 1028.7mb 46f 44f
1:18 5 7 mph 1028.7mb 46f 44f
1:12 6 8 mph 1028.8mb 46f 44f
1:06 6 7 mph 1028.8mb 46f 44f
1:00 5 8 mph 1028.9mb 46f 44f
12:54 6 7 mph 1028.8mb 46f 44f
12:48 2 6 mph 1028.8mb 46f 44f
12:42 3 7 mph 1028.8mb 46f 43f
12:36 6 7 mph 1028.8mb 46f 43f
12:30 3 6 mph 1028.7mb 46f 43f
12:24 5 7 mph 1028.8mb 46f 43f
12:18 6 8 mph 1028.7mb 46f 43f
12:12 6 8 mph 1028.7mb 46f 43f
12:06 7 9 mph 1028.8mb 46f 43f
12:00 6 8 mph 1028.8mb 46f 43f
dim. 11/23 11:54 6 9 mph 1028.9mb 46f 44f
11:48 6 8 mph 1028.7mb 46f 44f
11:42 6 8 mph 1028.6mb 46f 44f
11:36 3 7 mph 1028.6mb 46f 44f
11:30 6
mph
1028.5mb 46f 44f
11:24 2 7 mph 1028.5mb 46f 44f
11:18 1 5 mph 1028.4mb 46f 44f
11:12 3 7 mph 1028.4mb 46f 44f
11:06 3 6 mph 1028.2mb 46f 44f
11:00 5 7 mph 1028.3mb 46f 44f
10:54 3 7 mph 1028.3mb 46f 44f
10:48 3 6 mph 1028.4mb 46f 44f
10:42  -  6 mph 1028.2mb 46f 44f
10:36 5 7 mph 1028.2mb 46f 44f
10:30 1 6 mph 1028.1mb 46f 44f
10:24 5 6 mph 1028mb 46f 44f
10:18 2 6 mph 1027.8mb 46f 44f
10:12 5 6 mph 1027.8mb 46f 44f
10:06 1 2 mph 1027.8mb 46f 44f
10:00  -  2 mph 1027.8mb 46f 44f
9:54 2 5 mph 1027.7mb 46f 44f
9:48 2 6 mph 1027.6mb 46f 44f
9:42 2 6 mph 1027.6mb 46f 44f
9:36 3 6 mph 1027.5mb 46f 44f
9:30 3 6 mph 1027.4mb 47f 45f
9:24 2 3 mph 1027.3mb 47f 45f
9:18 3 5 mph 1027.2mb 47f 45f
9:12 3
mph
1027.2mb 47f 45f
9:06 3 6 mph 1027.4mb 47f 45f
9:00 5 6 mph 1027.4mb 47f 45f
8:54 6 8 mph 1027.5mb 47f 45f
8:48 6 7 mph 1027.4mb 47f 45f
8:42 5 8 mph 1027.4mb 47f 45f
8:36 6 8 mph 1027.2mb 47f 46f
8:30 6 7 mph 1027.1mb 47f 46f
8:24 2 5 mph 1027.2mb 47f 45f
8:18 1 2 mph 1027.3mb 47f 45f
8:12  -  2 mph 1027.1mb 47f 45f
8:06 2 3 mph 1027.1mb 47f 45f
8:00  -  mph 1027.1mb 47f 45f
7:54  -  3 mph 1027.3mb 47f 45f
7:48 2 5 mph 1027.3mb 47f 46f
7:42 1 5 mph 1027.3mb 47f 46f
7:36 2 3 mph 1027.3mb 47f 46f
7:30  -  3 mph 1027.3mb 47f 47f
7:24 1 3 mph 1027.2mb 47f 47f
7:18 3 5 mph 1027.1mb 47f 48f
7:12 2
mph
1027.1mb 47f 48f
7:06  -  2 mph 1027mb 47f 47f
7:00 1 2 mph 1027mb 47f 47f
6:54  -  2 mph 1027mb 47f 48f
6:48 1 2 mph 1026.8mb 47f 49f
6:42 1
mph
1026.7mb 47f 49f
6:36  -  1 mph 1026.6mb 47f 49f
6:30 1 3 mph 1026.5mb 47f 50f
6:24  -  1 mph 1026.5mb 47f 50f
6:18  -  1 mph 1026.2mb 47f 50f
6:12  -  1 mph 1026.2mb 47f 50f
6:06  -  2 mph 1026.2mb 47f 50f
6:00  -  2 mph 1026mb 47f 51f
5:54  -  2 mph 1025.9mb 47f 50f
5:48 2
mph
1025.9mb 47f 50f
5:42  -  2 mph 1025.9mb 47f 50f
5:36  -  1 mph 1026mb 47f 50f
5:30  -  2 mph 1025.9mb 47f 50f
5:24  -  2 mph 1025.9mb 47f 50f
5:18  -  2 mph 1025.8mb 47f 50f
5:12 1 2 mph 1025.7mb 47f 50f
5:06 1 3 mph 1025.8mb 47f 51f
5:00  -  2 mph 1025.7mb 47f 51f
4:54 1 2 mph 1025.6mb 47f 50f
4:48  -  1 mph 1025.6mb 47f 50f
4:42  -  2 mph 1025.6mb 47f 49f
4:36  -  3 mph 1025.6mb 47f 50f
4:30 2 3 mph 1025.4mb 47f 50f
4:24  -  5 mph 1025.5mb 47f 49f
4:18 1 2 mph 1025.3mb 47f 50f
4:12  -  2 mph 1025.2mb 47f 50f
4:06  -  1 mph 1025.2mb 47f 51f
4:00 1 2 mph 1025.3mb 47f 51f
3:54 1 3 mph 1025.3mb 47f 51f
3:48 2 3 mph 1025.3mb 47f 51f
3:42 2 3 mph 1025.3mb 47f 51f
3:36 2 3 mph 1025.3mb 47f 51f
3:30 2 3 mph 1025.3mb 47f 51f
3:24 2 5 mph 1025.1mb 47f 51f
3:18 2 3 mph 1025mb 47f 51f
3:12 2 6 mph 1024.9mb 47f 51f
3:06 2 5 mph 1025mb 47f 51f
3:00 2 5 mph 1024.9mb 47f 52f
2:54 1 3 mph 1025mb 47f 52f
2:48  -  2 mph 1025mb 47f 52f
2:42 1 2 mph 1024.9mb 47f 52f
2:36 2 5 mph 1024.7mb 47f 51f
2:30  -  3 mph 1024.6mb 47f 52f
2:24 2 6 mph 1024.6mb 47f 52f
2:18 2 3 mph 1024.6mb 47f 52f
2:12 2 5 mph 1024.6mb 47f 54f
2:06  -  2 mph 1024.4mb 47f 55f
2:00  -  3 mph 1024.4mb 47f 54f
1:54 2 5 mph 1024.5mb 47f 54f
1:48 1 5 mph 1024.6mb 47f 53f
1:42 2 5 mph 1024.5mb 47f 52f
1:36  -  2 mph 1024.4mb 47f 52f
1:30 2 3 mph 1024.3mb 47f 52f
1:24 1 5 mph 1024.2mb 47f 52f
1:18 2 6 mph 1024.2mb 47f 52f
1:06 1 6 mph 1024.3mb 47f 52f
1:00 2 5 mph 1024.2mb 47f 51f
12:54  -  5 mph 1024.2mb 47f 52f
12:48 1 3 mph 1024.2mb 47f 52f
12:42 1 6 mph 1024.1mb 47f 52f
12:36 3 6 mph 1024.1mb 47f 52f
12:30 3 7 mph 1024mb 47f 52f
12:24 3 8 mph 1023.9mb 47f 52f
12:18 3 7 mph 1023.9mb 47f 52f
12:12 6 8 mph 1023.8mb 46f 52f
12:06 3 7 mph 1023.8mb 46f 52f
12:00 2 5 mph 1023.9mb 46f 52f
11:54 2 8 mph 1024mb 46f 52f
11:48 6 11 mph 1024mb 46f 52f
11:42 7 13 mph 1024.1mb 46f 52f
11:36 6 13 mph 1024.1mb 46f 52f
11:30 8 14 mph 1024mb 46f 52f
11:24 10 18 mph 1024.1mb 46f 52f
11:18 11 20 mph 1024mb 46f 52f
11:12 17 22 mph 1023.9mb 46f 53f
11:06 16 29 mph 1023.8mb 46f 53f
11:00 21 31 mph 1023.6mb 46f 53f
10:54 24 33 mph 1023.5mb 46f 54f
10:48 21 31 mph 1023.3mb 46f 54f
10:42 23 29 mph 1023.1mb 46f 54f
10:36 23 37 mph 1023mb 46f 55f
10:30 30 41 mph 1022.7mb 46f 55f
10:24 22 29 mph 1022.4mb 46f 54f
10:18 17 31 mph 1022.5mb 46f 53f
10:12 24 38 mph 1022.6mb 46f 55f
10:06 25 39 mph 1021.8mb 46f 55f
10:00 26 34 mph 1021.9mb 46f 55f
9:54 28 32 mph 1021.9mb 46f 54f
9:48 30 39 mph 1022mb 46f 55f
9:42 22 34 mph 1022mb 46f 54f
9:36 26 34 mph 1022mb 46f 55f
9:30 17 24 mph 1021.9mb 46f 54f
9:24 20 26 mph 1022.1mb 46f 54f
9:18 16 23 mph 1022.4mb 46f 54f
9:12 17 26 mph 1022.3mb 46f 54f
9:06 24 34 mph 1022.3mb 46f 54f
9:00 21 31 mph 1022.3mb 46f 54f
8:54 17 30 mph 1022.3mb 46f 54f
8:48 21 29 mph 1022.5mb 46f 54f
8:42 22 28 mph 1022.6mb 46f 54f
8:36 24 33 mph 1022.6mb 46f 54f
8:30 21 32 mph 1022.5mb 46f 54f
8:24 23 38 mph 1022.5mb 46f 54f
8:18 21 26 mph 1022.6mb 46f 54f
8:12 17 30 mph 1022.3mb 46f 54f
8:06 18 29 mph 1022.5mb 46f 54f
8:00 16 30 mph 1022.5mb 46f 54f
7:54 18 26 mph 1022.5mb 46f 54f
7:48 23 34 mph 1022.3mb 46f 55f
7:42 18 29 mph 1022.2mb 46f 55f
7:36 20 29 mph 1022.1mb 46f 55f
7:30 18 37 mph 1022mb 46f 54f
7:24 20 29 mph 1022.1mb 46f 54f
7:18 20 25 mph 1022.1mb 46f 54f
7:12 21 30 mph 1022.5mb 46f 55f
7:06 16 24 mph 1022.6mb 46f 54f
7:00 16 24 mph 1022.8mb 46f 54f
6:54 16 23 mph 1022.8mb 46f 54f
6:48 18 26 mph 1022.8mb 46f 54f
6:42 16 22 mph 1022.9mb 46f 54f
6:36 14 29 mph 1022.9mb 46f 54f
6:30 18 25 mph 1022.9mb 47f 55f
6:24 21 23 mph 1023mb 47f 54f
6:18 15 26 mph 1023mb 47f 54f
6:12 16 25 mph 1023.1mb 47f 54f
6:06 16 21 mph 1023.1mb 47f 54f
6:00 16 22 mph 1023.1mb 47f 54f
5:54 11 22 mph 1023.1mb 47f 54f
5:48 13 18 mph 1023mb 47f 54f
5:42 14 18 mph 1023.1mb 47f 54f
5:36 14 20 mph 1023.2mb 47f 54f
5:30 11 17 mph 1023.3mb 47f 54f
5:24 13 20 mph 1023.2mb 47f 54f
5:18 13 17 mph 1023.2mb 47f 54f
5:12 10 17 mph 1023.2mb 47f 53f
5:06 11 16 mph 1023.2mb 47f 53f
5:00 11 17 mph 1023.2mb 47f 53f
4:54 10 14 mph 1023.3mb 47f 53f
4:48 14 17 mph 1023.3mb 47f 53f
4:42 10 16 mph 1023.2mb 47f 53f
4:36 9 15 mph 1023.3mb 47f 53f
4:30 8 14 mph 1023.2mb 47f 53f
4:24 8 14 mph 1023.4mb 47f 53f
4:18 9 15 mph 1023.2mb 47f 53f
4:12 9 15 mph 1023.4mb 47f 53f
4:06 9 11 mph 1023.5mb 47f 53f
4:00 10 14 mph 1023.4mb 47f 53f
3:54 8 13 mph 1023.5mb 47f 53f
3:48 9 14 mph 1023.6mb 47f 53f
3:42 8 14 mph 1023.4mb 46f 53f
3:36 8 11 mph 1023.5mb 46f 53f
3:30 10 13 mph 1023.5mb 46f 53f
3:24 8 17 mph 1023.6mb 46f 53f
3:18 7 13 mph 1023.7mb 47f 53f
3:12 6 11 mph 1023.6mb 47f 53f
3:06 7 13 mph 1023.6mb 47f 53f
3:00 10 14 mph 1023.6mb 47f 53f
2:54 7 10 mph 1023.6mb 47f 52f
2:48 6 9 mph 1023.7mb 47f 52f
2:42 7 11 mph 1023.8mb 47f 52f
2:36 8 11 mph 1023.7mb 47f 52f
2:30 9 11 mph 1023.5mb 47f 53f
2:24 7 11 mph 1023.5mb 47f 52f
2:18 8 10 mph 1023.5mb 47f 52f
2:12 9 15 mph 1023.3mb 47f 53f
2:06 10 14 mph 1023.4mb 47f 53f
2:00 8 13 mph 1023.7mb 47f 53f
1:54 8 11 mph 1023.6mb 47f 53f
1:48 8 13 mph 1023.6mb 47f 52f
1:42 8 13 mph 1023.5mb 47f 52f
1:36 8 11 mph 1023.5mb 47f 52f
1:30 8 13 mph 1023.5mb 47f 52f
1:24 6 8 mph 1023.6mb 47f 52f
1:18 6 9 mph 1023.4mb 47f 52f
1:12 8 10 mph 1023.3mb 47f 52f
1:06 6 11 mph 1023.4mb 46f 52f
1:00 7 10 mph 1023.5mb 46f 51f
12:54 7 9 mph 1023.6mb 46f 51f
12:48 7 10 mph 1023.6mb 46f 51f
12:42 6 9 mph 1023.5mb 46f 51f
12:36 7 9 mph 1023.5mb 46f 51f
12:30 7 10 mph 1023.5mb 46f 51f
12:24 7 8 mph 1023.2mb 46f 51f
12:18 6 10 mph 1023.5mb 46f 51f
12:12 5 7 mph 1023.4mb 46f 51f
12:06 5 7 mph 1023.4mb 46f 50f
12:00 5 7 mph 1023.3mb 46f 50f
sam. 11/22 11:54 5 6 mph 1023.3mb 46f 49f
11:48  -  2 mph 1023.3mb 46f 48f
11:42 1 3 mph 1023.2mb 46f 48f
11:36  -  1 mph 1023.2mb 46f 49f
11:30 1
mph
1023.2mb 46f 49f
11:24 1 3 mph 1023.1mb 46f 49f
11:18 2 3 mph 1022.9mb 46f 49f
11:12 2
mph
1022.8mb 46f 49f
11:06  -  1 mph 1022.8mb 46f 49f
11:00  -  2 mph 1022.7mb 46f 49f
10:54  -  3 mph 1022.6mb 46f 49f
10:48  -  1 mph 1022.6mb 46f 48f
10:42 2 5 mph 1022.5mb 46f 49f
10:36 1 5 mph 1022.5mb 46f 48f
10:30 2 6 mph 1022.5mb 46f 49f
10:24 5 6 mph 1022.4mb 46f 48f
10:18  -  2 mph 1022.3mb 46f 47f
10:12 1 3 mph 1022.3mb 46f 48f
10:06 2 3 mph 1022.2mb 46f 48f
10:00 1 3 mph 1022.1mb 46f 48f
9:54 1 2 mph 1022mb 46f 48f
9:48 1 2 mph 1022mb 46f 50f
9:42 1 2 mph 1022mb 46f 50f
9:36 1 3 mph 1021.9mb 46f 50f
9:30 2 6 mph 1021.8mb 46f 50f
9:24 3 7 mph 1021.8mb 46f 50f
9:18 6 9 mph 1021.7mb 46f 50f
9:12 6 9 mph 1021.5mb 46f 50f
9:06 5 10 mph 1021.5mb 46f 50f
9:00 6 8 mph 1021.3mb 46f 50f
8:54 6 9 mph 1021.3mb 46f 50f
8:48 7 8 mph 1021.1mb 46f 50f
8:42 5 7 mph 1021mb 46f 50f
8:36 6 13 mph 1021mb 46f 50f
8:30 6 9 mph 1020.9mb 46f 50f
8:24 5 8 mph 1020.8mb 46f 50f
8:18 5 7 mph 1020.7mb 46f 50f
8:12 6 8 mph 1020.8mb 47f 50f
8:06 5 9 mph 1020.8mb 47f 51f
8:00 5 8 mph 1020.8mb 47f 51f
7:54 5 7 mph 1020.8mb 47f 51f
7:48 5 9 mph 1020.7mb 47f 51f
7:42 6 10 mph 1020.6mb 47f 51f
7:36 8 11 mph 1020.5mb 47f 51f
7:30 7 11 mph 1020.3mb 47f 51f
7:24 7 10 mph 1020.2mb 47f 51f
7:18 3 5 mph 1020.3mb 47f 50f
7:12 2 5 mph 1020.3mb 47f 50f
7:06 2 6 mph 1020.2mb 47f 49f
7:00 5 7 mph 1020.2mb 47f 50f
6:54 5 7 mph 1020.2mb 47f 50f
6:48 6 10 mph 1020.1mb 47f 51f
6:42 7 10 mph 1020.1mb 47f 51f
6:36 2
mph
1020mb 47f 51f
6:30 2 3 mph 1019.8mb 47f 51f
6:24 2 3 mph 1019.8mb 47f 50f
6:18 2 5 mph 1019.7mb 47f 50f
6:12 2 5 mph 1019.7mb 47f 50f
6:06 2 5 mph 1019.6mb 47f 50f
6:00 2 5 mph 1019.5mb 47f 50f
5:54 2 5 mph 1019.5mb 47f 50f
5:48 3 5 mph 1019.3mb 47f 50f
5:42 2 6 mph 1019.3mb 47f 50f
5:36 3 6 mph 1019.2mb 47f 50f
5:30 3 6 mph 1019mb 47f 51f
5:24 5 6 mph 1018.8mb 47f 51f
5:18 5 6 mph 1018.8mb 47f 51f
5:12 5 7 mph 1018.9mb 47f 51f
5:06 5 7 mph 1018.9mb 47f 50f
5:00 6 7 mph 1018.7mb 47f 51f
4:54 5 6 mph 1018.5mb 47f 51f
4:48 3 6 mph 1018.4mb 47f 50f
4:42 5 6 mph 1018.3mb 47f 51f
4:36 5 7 mph 1018.2mb 47f 51f
4:30 1 2 mph 1018.1mb 48f 50f
4:24 2 3 mph 1018mb 48f 50f
4:18 1 2 mph 1017.9mb 48f 50f
4:12  -  3 mph 1017.9mb 48f 50f
4:06 2 3 mph 1017.9mb 48f 50f
4:00 1 6 mph 1017.9mb 48f 50f
3:54 2 5 mph 1017.9mb 48f 51f
3:48 1 6 mph 1017.7mb 48f 51f
3:42 3 7 mph 1017.6mb 47f 51f
3:36 1 5 mph 1017.6mb 47f 52f
3:30  -  6 mph 1017.5mb 47f 52f
3:24 2 8 mph 1017.5mb 47f 51f
3:18 2 6 mph 1017.4mb 47f 51f
3:12 3 7 mph 1017.3mb 48f 51f
3:06 6 8 mph 1017.1mb 48f 51f
3:00 2 7 mph 1017.1mb 47f 51f
2:54 2 6 mph 1017mb 47f 51f
2:48 1 7 mph 1016.8mb 47f 52f
2:42 2 7 mph 1016.7mb 47f 52f
2:36 3 6 mph 1016.6mb 47f 51f
2:30 5 7 mph 1016.5mb 47f 51f
2:24 3 7 mph 1016.4mb 47f 51f
2:18 2 7 mph 1016.4mb 47f 51f
2:12 2 6 mph 1016.3mb 47f 51f
2:06 2 6 mph 1016.1mb 47f 51f
2:00 2 6 mph 1016.1mb 47f 52f
1:54 3 6 mph 1016mb 47f 52f
1:48 2 6 mph 1015.9mb 47f 52f
1:42 2 6 mph 1015.8mb 47f 51f
1:36 2 6 mph 1015.6mb 47f 52f
1:30 2 6 mph 1015.5mb 48f 52f
1:24 1 3 mph 1015.4mb 48f 53f
1:18 2 6 mph 1015.3mb 48f 52f
1:12 2 5 mph 1015.1mb 48f 53f
1:06 2 5 mph 1015mb 48f 53f
1:00 1 5 mph 1014.8mb 47f 54f
12:54  -  3 mph 1014.7mb 47f 53f
12:48  -  3 mph 1014.6mb 47f 53f
12:42 1 5 mph 1014.5mb 47f 53f
12:36  -  3 mph 1014.3mb 47f 51f
12:30  -  5 mph 1014.2mb 48f 51f
12:24 2 6 mph 1014.1mb 48f 52f
12:18 2 6 mph 1014mb 47f 51f
12:12 2 6 mph 1013.9mb 47f 51f
12:06 2 5 mph 1013.6mb 47f 51f
12:00 1 6 mph 1013.5mb 47f 51f
11:54 2 6 mph 1013.4mb 47f 51f
11:48 1 5 mph 1013.3mb 47f 50f
11:42 2 5 mph 1013.1mb 47f 50f
11:36 2 3 mph 1013mb 47f 49f
11:30  -  3 mph 1012.8mb 47f 49f
11:24 1 3 mph 1012.7mb 47f 48f
11:18 1 5 mph 1012.5mb 47f 48f
11:12 2 3 mph 1012.5mb 46f 48f
11:06 2 6 mph 1012.4mb 46f 48f
11:00 3 6 mph 1012.4mb 46f 48f
10:54 1 3 mph 1012.2mb 46f 47f
10:48 2 6 mph 1012mb 46f 47f
10:42 3 6 mph 1011.9mb 46f 46f
10:36 2 5 mph 1011.8mb 46f 46f
10:30  -  3 mph 1011.6mb 46f 46f
10:24  -  2 mph 1011.5mb 46f 46f
10:18  -  2 mph 1011.3mb 46f 46f
10:12  -  2 mph 1011mb 46f 46f
10:06 2 3 mph 1010.6mb 46f 46f
10:00 1 3 mph 1010.4mb 46f 46f
9:54 1 3 mph 1010.3mb 46f 46f
9:48  -  2 mph 1010.3mb 46f 46f
9:42 1 2 mph 1010.3mb 46f 46f
9:36  -  1 mph 1010.2mb 46f 46f
9:30  -  3 mph 1010.1mb 46f 46f
9:24 1 2 mph 1010mb 46f 46f
9:18  -  2 mph 1010.1mb 46f 46f
9:12  -  3 mph 1010mb 46f 46f
9:06 3 6 mph 1009.8mb 46f 46f
9:00 5 6 mph 1009.4mb 46f 46f
8:54 5 6 mph 1009.3mb 46f 46f
8:48 5 6 mph 1009.2mb 46f 46f
8:42 2 3 mph 1009.2mb 46f 46f
8:36 3 5 mph 1009.2mb 46f 46f
8:30 2 3 mph 1009.2mb 46f 46f
8:24  -  2 mph 1009mb 47f 46f
8:18 2 3 mph 1008.9mb 47f 46f
8:12 2
mph
1008.9mb 47f 46f
8:06  -  3 mph 1008.7mb 47f 46f
8:00 1 2 mph 1008.8mb 47f 46f
7:54 2 7 mph 1008.7mb 47f 46f
7:48 6 11 mph 1008.6mb 47f 46f
7:42 7 13 mph 1008.6mb 47f 46f
7:36 10 21 mph 1008.6mb 47f 46f
7:30 17 30 mph 1008.3mb 47f 46f
7:24 7 14 mph 1007.7mb 47f 49f
7:18 13 16 mph 1007.2mb 47f 49f
7:12 13 16 mph 1006.8mb 47f 49f
7:06 11 14 mph 1006.8mb 47f 49f
7:00 10 15 mph 1006.8mb 47f 49f
6:54 10 14 mph 1006.8mb 47f 49f
6:48 10 14 mph 1006.8mb 47f 49f
6:42 10 15 mph 1006.8mb 47f 49f
6:36 8 15 mph 1006.8mb 47f 49f
6:30 10 14 mph 1006.9mb 47f 49f
6:24 8 10 mph 1006.9mb 47f 49f
6:18 8 10 mph 1006.9mb 47f 49f
6:12  -  2 mph 1007mb 47f 48f
6:06  -  1 mph 1007mb 47f 48f
6:00  -  3 mph 1007mb 47f 47f
5:54 1 5 mph 1006.9mb 47f 47f
5:48 3 5 mph 1007mb 47f 48f
5:42 2 5 mph 1007mb 47f 47f
5:36 3 6 mph 1007mb 47f 47f
5:30 2 3 mph 1007mb 47f 47f
5:24  -  1 mph 1007mb 47f 47f
5:18  -  1 mph 1007.1mb 47f 47f